Zurück zum Katalog

A-1

ASTERIX

AktivWissenschaftLEO
NORAD 1778·PAYLOAD·🇫🇷 France

Gestartet Nov 26, 1965 von Hammaguir Space Track Range

Loading…

Nächste Überflüge (nächste 24 Stunden)

TLE

AktuellSource: Space-Track

Epoche: Sep 14, 2026, 01:39 UTC

1 01778U 65096A   26257.06884279  .00000439  00000-0  12161-3 0  9995
2 01778  34.2531 164.3542 0738769 107.6447 260.6208 13.49917505976805

Verfolge A-1 in Echtzeit mit AllMySat

Download on the App Store